SCP
0 -0 -0 -0 -0 -0 0 0 0 0 0 0 0 0 0 0 0 0 0 0 0 0 0 0 0 0 0 0 0 0 0 0 0 0 0 0 0 0 0 0 0 0 0
0 0 -0 -0 -0 -0 -0 0 0 0 0 0 0 0 0 0 0 0 0 0 0 0 0 0 0 0 0 0 0 0 0 0 0 0 0 0 0 0 -0 0 0 0 0
0 0 0 -0 0 0 -0 0 0 0 0 0 0 0 0 0 0 0 0 0 0 0 0 0 0 0 0 0 0 0 0 0 0 0 0 0 0 0 0 0 0 0 0
0 0 0 -0 -0 -0 -0 -0 0 0 0 0 0 0 0 0 0 0 0 0 0 0 0 0 0 0 0 0 0 0 0 0 0 0 0 0 0 0 0 0 0 0 0
0 0 0 -0 -0 -0 0 0 0 0 0 0 0 0 0 0 0 0 0 0 0 0 0 0 0 0 0 0 0 0 0 0 0 0 0 0 0 0 -0 0 0 0 0
0 0 0 -0 -0 -0 0 0 0 0 0 0 0 0 0 0 0 0 0 0 0 0 0 0 0 0 0 0 0 0 0 0 0 0 0 0 0 0 0 0 0 0 0
0 0 0 -0 -0 0 0 0 0 0 0 0 0 0 0 0 0 0 0 0 0 0 0 0 0 0 0 0 0 0 0 0 0 0 0 0 0 1 0 0 0 0 0
0 0 0 0 0 0 0 0 0 0 0 0 0 0 0 0 0 0 0 0 0 0 0 0 0 0 0 0 0 0 0 0 0 0 0 0 0 0 0 0 0 0 0
0 0 0 0 0 0 0 0 0 -0 0 0 0 0 0 0 0 0 0 0 0 -0 -0 0 0 0 0 0 0 0 0 0 0 0 0 0 1 0 0 0 0 0 0
0 0 0 0 0 0 0 0 -0 -0 -0 0 0 0 0 0 0 0 0 0 -0 -0 -0 0 0 0 0 0 0 0 0 0 0 0 0 0 0 0 0 0 0 0 0
0 0 0 0 0 0 0 0 -0 -0 -0 -0 -0 0 0 0 0 0 0 0 0 -0 -0 0 -0 0 0 0 0 0 0 0 0 0 0 0 0 0 0 0 0 0 0
0 0 0 0 0 0 0 0 0 -0 -0 -0 -0 0 0 0 0 0 0 0 -0 -0 -0 0 0 0 0 0 0 0 0 0 0 0 0 0 0 0 0 0 0 0 0
0 0 0 0 0 0 0 0 0 0 0 -0 0 0 0 0 0 0 0 0 0 0 0 0 0 0 0 0 0 0 0 0 0 0 0 0 0 0 0 0 0 0 0
0 0 0 0 0 0 0 0 0 0 0 0 0 0 0 0 0 0 0 0 0 0 0 0 0 0 0 0 0 0 0 0 0 0 0 0 0 0 0 0 0 0 0
0 0 0 0 0 0 0 0 0 0 0 0 0 0 0 0 0 0 0 0 0 0 0 0 0 0 0 0 0 0 0 0 0 0 0 0 0 0 0 0 0 0 0
0 0 0 0 0 0 0 0 0 0 0 0 0 0 0 0 0 0 0 0 0 0 0 0 0 0 0 0 0 0 0 0 0 0 0 0 0 0 0 0 0 0 0
0 0 0 0 0 0 0 0 0 0 0 0 0 0 0 0 0 0 0 0 0 0 0 -0 0 0 0 0 0 0 0 0 0 0 0 0 0 0 0 0 0 0 0
0 0 0 0 0 0 0 0 0 0 0 0 0 0 0 0 0 0 0 0 0 0 0 0 0 0 0 0 0 0 0 0 0 0 0 0 0 0 0 0 0 0 0
0 0 0 0 0 0 0 0 0 0 0 0 0 0 0 0 0 0 0 0 0 0 0 0 0 0 0 0 0 0 -0 -0 0 0 0 0 0 0 0 0 0 0 0
0 0 0 0 0 0 0 0 0 0 -0 -0 0 0 0 0 0 0 0 0 0 0 0 0 0 0 0 0 0 0 0 0 0 0 0 0 0 0 0 0 0 0 0
0 0 0 0 0 0 0 0 0 0 -0 -0 0 0 0 0 0 0 0 0 0 0 0 0 0 0 0 0 0 0 0 0 0 0 0 0 0 0 0 0 0 0 0
0 0 0 0 0 0 0 0 0 0 0 0 0 0 0 0 0 0 0 0 0 0 0 0 0 0 0 0 0 0 0 0 0 -0 0 0 0 0 0 0 0 0 0
0 0 0 0 0 0 0 0 0 0 0 0 0 0 0 0 0 0 0 0 0 0 0 0 0 0 0 0 0 0 0 0 -0 0 0 0 0 0 0 0 0 0 0
0 0 0 0 0 0 0 0 0 0 0 0 0 0 0 0 0 0 0 0 0 0 0 0 0 0 0 0 0 0 0 0 0 0 0 0 0 0 0 0 0 0 0
0 0 0 0 0 0 0 0 0 0 0 0 0 0 0 0 0 0 0 0 0 0 0 0 0 0 0 0 0 0 0 0 0 0 0 0 0 0 0 0 0 0 0
0 0 0 0 0 0 0 0 0 0 0 0 0 0 0 0 0 0 0 0 0 0 0 0 0 0 0 0 0 0 0 0 0 0 0 0 0 0 0 0 0 0 0
Wind_Speed_500mb
25 17 15 22 18 4 2 1 2 3 7 11 11 11 14 16 14 17 19 19 18 16 18 13 10 3 4 9 13 15 16 15 15 14 15 16 14 12 10 12 12 12 14
13 11 11 17 23 12 2 1 1 4 10 12 13 11 13 12 13 16 18 17 16 15 12 13 11 9 4 4 9 14 16 19 18 18 16 16 18 15 13 13 14 18 15
10 6 7 16 22 8 4 2 2 6 10 11 10 8 7 6 8 11 13 13 12 16 16 14 13 11 8 7 7 7 14 16 20 20 20 21 21 23 16 14 14 15 16
8 10 9 21 24 10 4 4 3 6 10 12 9 4 3 5 8 11 11 12 13 15 15 15 14 13 11 6 5 6 7 15 17 23 24 24 27 27 23 21 16 15 15
8 10 14 22 27 14 7 4 4 7 10 9 5 5 6 8 11 12 14 17 18 18 17 17 16 14 11 8 4 3 6 6 10 16 26 26 27 25 29 26 21 13 11
13 8 5 19 26 20 12 9 10 13 13 10 10 13 14 13 16 17 26 23 22 21 19 18 17 16 15 12 7 1 4 1 6 10 17 26 27 21 17 22 20 16 18
14 6 7 13 21 20 18 17 15 14 11 13 15 18 21 19 25 26 35 34 33 25 23 20 18 16 17 17 14 7 1 7 13 6 10 21 19 16 26 30 24 21 22
6 5 5 9 16 17 19 22 18 18 17 19 23 21 19 22 21 23 31 38 36 31 29 26 25 21 19 19 19 16 7 15 11 3 10 12 16 20 19 17 19 18 21
12 3 2 9 11 13 16 21 22 25 20 15 16 15 13 13 23 24 27 31 31 31 25 20 18 12 11 14 14 16 17 17 11 0 13 11 12 9 7 8 8 14 19
11 7 2 6 8 5 8 13 19 25 25 19 8 10 9 12 18 17 18 22 26 25 27 18 15 16 10 11 14 16 21 16 4 4 12 11 8 2 6 13 19 25 26
9 4 6 5 4 6 3 7 14 19 23 21 15 5 4 8 12 14 12 15 19 17 22 24 24 29 20 4 2 8 16 13 14 12 14 12 8 6 11 19 26 26 24
14 9 6 6 10 9 4 6 10 11 14 19 21 1 2 7 5 10 11 12 10 15 17 17 23 22 17 2 8 3 9 14 12 13 14 10 2 10 18 23 26 21 18
15 13 11 13 13 11 7 8 5 4 12 16 17 20 8 2 2 5 4 3 13 15 12 12 20 17 15 18 4 11 6 15 19 11 6 4 7 13 14 17 16 13 13
25 19 16 20 16 13 10 12 4 4 3 7 14 20 21 6 2 8 10 14 21 6 10 13 13 10 13 14 17 17 14 5 14 11 5 4 5 6 10 11 11 13 16
28 20 20 21 23 19 17 15 12 9 7 15 13 19 21 13 4 5 14 23 20 6 10 17 16 6 5 11 14 18 13 9 2 5 3 4 7 6 8 9 17 24 23
37 32 24 23 22 30 24 16 14 16 17 13 11 14 18 21 8 7 15 22 16 12 17 28 23 6 6 3 6 8 10 10 4 4 4 11 15 12 7 14 22 30 33
46 38 30 25 21 25 27 30 24 19 13 12 13 7 15 22 13 13 19 21 24 20 24 31 10 2 5 4 3 1 6 9 5 3 7 11 8 13 17 24 24 26 35
52 45 37 31 22 23 28 28 22 15 11 13 9 7 14 19 16 16 19 18 26 21 26 34 12 7 13 21 6 2 4 7 5 7 6 10 17 23 28 26 22 32 30
57 48 43 33 23 23 25 23 16 11 13 11 3 7 11 14 21 14 21 12 21 26 28 30 12 11 11 15 18 7 8 3 3 3 11 20 24 23 17 21 25 27 28
57 50 42 31 23 21 23 16 12 8 9 5 2 5 8 15 25 17 23 12 17 25 19 25 20 8 14 16 16 7 12 6 5 5 16 12 10 11 19 24 25 27 25
58 53 43 29 25 22 24 17 15 9 7 3 5 9 13 17 23 22 15 11 15 16 16 18 21 17 7 21 18 17 12 7 11 6 17 14 13 18 21 31 33 34 35
58 51 36 23 26 26 21 22 17 11 5 5 9 14 18 20 21 17 10 15 14 10 14 13 20 25 14 19 24 16 15 2 18 26 20 22 18 25 31 29 25 32 40
56 47 32 23 25 25 23 20 12 11 10 9 13 14 16 16 8 15 11 13 15 15 8 13 16 20 19 7 13 12 9 10 43 30 40 30 38 35 33 38 41 45 40
47 37 26 25 22 26 25 20 15 13 9 9 8 7 10 5 8 7 11 15 19 18 11 11 12 15 18 18 16 16 21 27 35 41 47 49 42 43 41 39 40 40 39
30 30 23 26 22 28 26 25 20 16 14 12 9 8 7 11 14 11 11 17 20 16 10 10 13 16 22 26 29 34 36 35 37 41 55 57 54 46 41 40 38 35 31
18 17 15 21 21 28 29 29 22 19 20 16 14 14 13 12 14 17 14 14 19 14 11 13 17 21 26 32 33 36 38 39 41 41 47 49 48 48 46 39 36 32 31
Wind_Direction_500mb
137 93 46 21 7 324 313 51 64 55 6 355 345 342 342 347 349 351 354 358 13 34 31 27 38 21 244 224 227 216 211 207 212 199 192 206 211 213 209 216 222 218 233
127 96 54 23 11 355 291 191 36 347 347 342 331 327 333 341 344 348 352 358 30 29 40 29 23 26 360 276 227 229 220 212 211 213 207 193 197 203 206 215 225 243 260
155 120 69 12 355 4 302 234 239 324 332 328 319 318 326 326 336 348 355 7 25 21 15 17 7 17 20 352 314 241 226 223 214 212 208 206 196 180 187 210 226 242 247
168 140 66 12 15 9 336 290 307 336 334 329 324 331 337 348 359 6 10 16 11 4 356 352 349 351 354 6 352 316 260 223 212 207 205 205 205 208 206 212 222 224 237
161 106 38 27 22 12 356 346 355 350 342 336 336 12 37 30 24 21 22 15 3 354 350 347 345 348 350 357 3 327 309 272 203 197 200 204 195 204 215 211 219 221 238
137 95 42 30 31 35 39 31 16 2 0 20 54 68 62 51 44 40 38 23 15 8 11 13 8 3 6 8 13 12 306 344 157 164 190 196 189 196 201 200 197 234 251
149 123 25 36 40 33 35 34 17 16 37 61 71 75 70 68 57 69 43 38 31 31 27 27 26 25 39 40 29 14 328 136 133 137 147 184 193 184 191 198 231 243 248
137 104 353 43 39 32 36 30 36 40 60 83 88 86 68 56 52 56 45 40 33 32 35 49 48 62 60 49 37 33 52 122 102 107 135 110 161 189 205 219 232 254 270
162 152 108 29 27 20 31 39 51 53 56 75 87 76 55 54 45 52 44 40 32 27 32 50 39 42 53 62 53 66 74 96 89 347 153 154 186 195 204 234 274 285 284
160 149 163 77 348 0 49 57 67 54 52 53 84 66 72 73 50 36 30 37 32 21 14 33 15 11 11 65 73 62 67 74 54 143 171 161 174 198 320 313 310 305 292
159 196 145 134 210 237 63 86 64 56 36 41 40 46 95 83 47 27 50 42 28 9 16 15 6 356 355 109 102 54 43 60 63 119 146 177 205 282 326 335 327 304 277
207 219 231 231 211 203 166 129 77 56 23 23 30 154 31 88 25 35 53 57 31 346 7 2 1 19 42 115 199 207 11 19 54 104 177 197 301 4 359 349 329 306 275
197 200 235 236 193 158 163 177 127 47 0 3 11 16 342 307 233 215 52 22 347 335 14 26 24 57 36 34 341 237 302 20 72 92 180 157 18 355 360 358 344 329 316
186 206 237 232 235 179 175 171 195 308 309 330 345 355 0 352 140 93 39 9 354 39 30 16 16 47 32 24 35 30 238 36 84 88 69 336 312 333 351 353 346 335 328
210 213 204 210 221 211 183 194 266 283 282 307 330 355 21 11 143 62 36 21 22 25 3 6 339 10 7 27 50 46 62 197 96 65 47 346 296 297 325 306 342 333 330
223 231 219 207 209 204 217 209 222 258 261 283 307 1 24 30 77 13 27 12 9 349 0 354 344 335 345 68 83 66 75 99 120 44 334 296 276 278 303 315 323 314 317
229 231 224 211 214 211 219 222 227 233 255 279 314 329 8 22 30 17 14 8 359 357 1 356 5 178 34 170 140 6 87 93 153 246 321 298 267 283 307 302 302 309 323
228 227 218 214 204 195 202 212 218 220 228 281 273 325 359 356 2 0 355 0 354 359 0 12 39 109 57 57 55 151 98 163 214 267 277 285 291 294 298 303 303 313 323
228 227 218 213 204 198 195 197 203 216 235 252 282 357 339 332 336 339 339 347 347 346 355 11 28 35 31 48 46 194 211 211 0 305 303 298 295 308 306 316 313 315 324
223 225 223 210 207 201 204 201 197 194 168 149 128 337 293 302 334 314 323 307 323 327 356 17 30 26 5 6 15 58 221 222 171 324 317 285 312 312 310 306 314 325 324
225 223 217 208 214 212 208 191 175 163 190 208 262 259 257 295 327 320 309 333 329 329 0 12 31 16 346 2 35 84 74 169 201 62 321 314 287 299 301 295 303 301 311
223 214 209 210 223 221 206 197 195 173 173 236 257 254 244 287 313 339 302 331 351 309 328 4 15 16 20 348 9 19 6 250 233 296 318 323 316 304 297 301 290 294 298
217 210 210 224 231 224 206 207 202 183 219 243 261 263 258 292 331 9 345 9 353 347 322 341 358 10 18 22 351 4 349 304 310 320 319 318 316 315 305 301 293 294 287
214 210 219 232 252 216 210 205 180 196 199 218 247 245 286 314 342 339 358 8 2 349 307 323 347 353 348 349 344 329 318 310 311 313 315 315 317 317 313 306 302 299 294
218 219 237 244 252 212 217 213 205 198 218 246 230 287 272 296 278 282 313 345 346 338 333 332 336 334 331 331 327 324 321 317 312 307 309 315 318 324 326 326 325 318 308
197 220 248 269 219 214 218 218 218 220 226 232 233 245 246 273 262 251 284 340 338 334 338 345 335 332 329 323 320 320 313 311 314 311 309 319 322 327 329 330 333 330 323
Wind_Speed_850mb
25 17 15 22 18 4 2 1 2 3 7 11 11 11 14 16 14 17 19 19 18 16 18 13 10 3 4 9 13 15 16 15 15 14 15 16 14 12 10 12 12 12 14
13 11 11 17 23 12 2 1 1 4 10 12 13 11 13 12 13 16 18 17 16 15 12 13 11 9 4 4 9 14 16 19 18 18 16 16 18 15 13 13 14 18 15
10 6 7 16 22 8 4 2 2 6 10 11 10 8 7 6 8 11 13 13 12 16 16 14 13 11 8 7 7 7 14 16 20 20 20 21 21 23 16 14 14 15 16
8 10 9 21 24 10 4 4 3 6 10 12 9 4 3 5 8 11 11 12 13 15 15 15 14 13 11 6 5 6 7 15 17 23 24 24 27 27 23 21 16 15 15
8 10 14 22 27 14 7 4 4 7 10 9 5 5 6 8 11 12 14 17 18 18 17 17 16 14 11 8 4 3 6 6 10 16 26 26 27 25 29 26 21 13 11
13 8 5 19 26 20 12 9 10 13 13 10 10 13 14 13 16 17 26 23 22 21 19 18 17 16 15 12 7 1 4 1 6 10 17 26 27 21 17 22 20 16 18
14 6 7 13 21 20 18 17 15 14 11 13 15 18 21 19 25 26 35 34 33 25 23 20 18 16 17 17 14 7 1 7 13 6 10 21 19 16 26 30 24 21 22
6 5 5 9 16 17 19 22 18 18 17 19 23 21 19 22 21 23 31 38 36 31 29 26 25 21 19 19 19 16 7 15 11 3 10 12 16 20 19 17 19 18 21
12 3 2 9 11 13 16 21 22 25 20 15 16 15 13 13 23 24 27 31 31 31 25 20 18 12 11 14 14 16 17 17 11 0 13 11 12 9 7 8 8 14 19
11 7 2 6 8 5 8 13 19 25 25 19 8 10 9 12 18 17 18 22 26 25 27 18 15 16 10 11 14 16 21 16 4 4 12 11 8 2 6 13 19 25 26
9 4 6 5 4 6 3 7 14 19 23 21 15 5 4 8 12 14 12 15 19 17 22 24 24 29 20 4 2 8 16 13 14 12 14 12 8 6 11 19 26 26 24
14 9 6 6 10 9 4 6 10 11 14 19 21 1 2 7 5 10 11 12 10 15 17 17 23 22 17 2 8 3 9 14 12 13 14 10 2 10 18 23 26 21 18
15 13 11 13 13 11 7 8 5 4 12 16 17 20 8 2 2 5 4 3 13 15 12 12 20 17 15 18 4 11 6 15 19 11 6 4 7 13 14 17 16 13 13
25 19 16 20 16 13 10 12 4 4 3 7 14 20 21 6 2 8 10 14 21 6 10 13 13 10 13 14 17 17 14 5 14 11 5 4 5 6 10 11 11 13 16
28 20 20 21 23 19 17 15 12 9 7 15 13 19 21 13 4 5 14 23 20 6 10 17 16 6 5 11 14 18 13 9 2 5 3 4 7 6 8 9 17 24 23
37 32 24 23 22 30 24 16 14 16 17 13 11 14 18 21 8 7 15 22 16 12 17 28 23 6 6 3 6 8 10 10 4 4 4 11 15 12 7 14 22 30 33
46 38 30 25 21 25 27 30 24 19 13 12 13 7 15 22 13 13 19 21 24 20 24 31 10 2 5 4 3 1 6 9 5 3 7 11 8 13 17 24 24 26 35
52 45 37 31 22 23 28 28 22 15 11 13 9 7 14 19 16 16 19 18 26 21 26 34 12 7 13 21 6 2 4 7 5 7 6 10 17 23 28 26 22 32 30
57 48 43 33 23 23 25 23 16 11 13 11 3 7 11 14 21 14 21 12 21 26 28 30 12 11 11 15 18 7 8 3 3 3 11 20 24 23 17 21 25 27 28
57 50 42 31 23 21 23 16 12 8 9 5 2 5 8 15 25 17 23 12 17 25 19 25 20 8 14 16 16 7 12 6 5 5 16 12 10 11 19 24 25 27 25
58 53 43 29 25 22 24 17 15 9 7 3 5 9 13 17 23 22 15 11 15 16 16 18 21 17 7 21 18 17 12 7 11 6 17 14 13 18 21 31 33 34 35
58 51 36 23 26 26 21 22 17 11 5 5 9 14 18 20 21 17 10 15 14 10 14 13 20 25 14 19 24 16 15 2 18 26 20 22 18 25 31 29 25 32 40
56 47 32 23 25 25 23 20 12 11 10 9 13 14 16 16 8 15 11 13 15 15 8 13 16 20 19 7 13 12 9 10 43 30 40 30 38 35 33 38 41 45 40
47 37 26 25 22 26 25 20 15 13 9 9 8 7 10 5 8 7 11 15 19 18 11 11 12 15 18 18 16 16 21 27 35 41 47 49 42 43 41 39 40 40 39
30 30 23 26 22 28 26 25 20 16 14 12 9 8 7 11 14 11 11 17 20 16 10 10 13 16 22 26 29 34 36 35 37 41 55 57 54 46 41 40 38 35 31
18 17 15 21 21 28 29 29 22 19 20 16 14 14 13 12 14 17 14 14 19 14 11 13 17 21 26 32 33 36 38 39 41 41 47 49 48 48 46 39 36 32 31
Wind_Direction_850mb
137 93 46 21 7 324 313 51 64 55 6 355 345 342 342 347 349 351 354 358 13 34 31 27 38 21 244 224 227 216 211 207 212 199 192 206 211 213 209 216 222 218 233
127 96 54 23 11 355 291 191 36 347 347 342 331 327 333 341 344 348 352 358 30 29 40 29 23 26 360 276 227 229 220 212 211 213 207 193 197 203 206 215 225 243 260
155 120 69 12 355 4 302 234 239 324 332 328 319 318 326 326 336 348 355 7 25 21 15 17 7 17 20 352 314 241 226 223 214 212 208 206 196 180 187 210 226 242 247
168 140 66 12 15 9 336 290 307 336 334 329 324 331 337 348 359 6 10 16 11 4 356 352 349 351 354 6 352 316 260 223 212 207 205 205 205 208 206 212 222 224 237
161 106 38 27 22 12 356 346 355 350 342 336 336 12 37 30 24 21 22 15 3 354 350 347 345 348 350 357 3 327 309 272 203 197 200 204 195 204 215 211 219 221 238
137 95 42 30 31 35 39 31 16 2 0 20 54 68 62 51 44 40 38 23 15 8 11 13 8 3 6 8 13 12 306 344 157 164 190 196 189 196 201 200 197 234 251
149 123 25 36 40 33 35 34 17 16 37 61 71 75 70 68 57 69 43 38 31 31 27 27 26 25 39 40 29 14 328 136 133 137 147 184 193 184 191 198 231 243 248
137 104 353 43 39 32 36 30 36 40 60 83 88 86 68 56 52 56 45 40 33 32 35 49 48 62 60 49 37 33 52 122 102 107 135 110 161 189 205 219 232 254 270
162 152 108 29 27 20 31 39 51 53 56 75 87 76 55 54 45 52 44 40 32 27 32 50 39 42 53 62 53 66 74 96 89 347 153 154 186 195 204 234 274 285 284
160 149 163 77 348 0 49 57 67 54 52 53 84 66 72 73 50 36 30 37 32 21 14 33 15 11 11 65 73 62 67 74 54 143 171 161 174 198 320 313 310 305 292
159 196 145 134 210 237 63 86 64 56 36 41 40 46 95 83 47 27 50 42 28 9 16 15 6 356 355 109 102 54 43 60 63 119 146 177 205 282 326 335 327 304 277
207 219 231 231 211 203 166 129 77 56 23 23 30 154 31 88 25 35 53 57 31 346 7 2 1 19 42 115 199 207 11 19 54 104 177 197 301 4 359 349 329 306 275
197 200 235 236 193 158 163 177 127 47 0 3 11 16 342 307 233 215 52 22 347 335 14 26 24 57 36 34 341 237 302 20 72 92 180 157 18 355 360 358 344 329 316
186 206 237 232 235 179 175 171 195 308 309 330 345 355 0 352 140 93 39 9 354 39 30 16 16 47 32 24 35 30 238 36 84 88 69 336 312 333 351 353 346 335 328
210 213 204 210 221 211 183 194 266 283 282 307 330 355 21 11 143 62 36 21 22 25 3 6 339 10 7 27 50 46 62 197 96 65 47 346 296 297 325 306 342 333 330
223 231 219 207 209 204 217 209 222 258 261 283 307 1 24 30 77 13 27 12 9 349 0 354 344 335 345 68 83 66 75 99 120 44 334 296 276 278 303 315 323 314 317
229 231 224 211 214 211 219 222 227 233 255 279 314 329 8 22 30 17 14 8 359 357 1 356 5 178 34 170 140 6 87 93 153 246 321 298 267 283 307 302 302 309 323
228 227 218 214 204 195 202 212 218 220 228 281 273 325 359 356 2 0 355 0 354 359 0 12 39 109 57 57 55 151 98 163 214 267 277 285 291 294 298 303 303 313 323
228 227 218 213 204 198 195 197 203 216 235 252 282 357 339 332 336 339 339 347 347 346 355 11 28 35 31 48 46 194 211 211 0 305 303 298 295 308 306 316 313 315 324
223 225 223 210 207 201 204 201 197 194 168 149 128 337 293 302 334 314 323 307 323 327 356 17 30 26 5 6 15 58 221 222 171 324 317 285 312 312 310 306 314 325 324
225 223 217 208 214 212 208 191 175 163 190 208 262 259 257 295 327 320 309 333 329 329 0 12 31 16 346 2 35 84 74 169 201 62 321 314 287 299 301 295 303 301 311
223 214 209 210 223 221 206 197 195 173 173 236 257 254 244 287 313 339 302 331 351 309 328 4 15 16 20 348 9 19 6 250 233 296 318 323 316 304 297 301 290 294 298
217 210 210 224 231 224 206 207 202 183 219 243 261 263 258 292 331 9 345 9 353 347 322 341 358 10 18 22 351 4 349 304 310 320 319 318 316 315 305 301 293 294 287
214 210 219 232 252 216 210 205 180 196 199 218 247 245 286 314 342 339 358 8 2 349 307 323 347 353 348 349 344 329 318 310 311 313 315 315 317 317 313 306 302 299 294
218 219 237 244 252 212 217 213 205 198 218 246 230 287 272 296 278 282 313 345 346 338 333 332 336 334 331 331 327 324 321 317 312 307 309 315 318 324 326 326 325 318 308
197 220 248 269 219 214 218 218 218 220 226 232 233 245 246 273 262 251 284 340 338 334 338 345 335 332 329 323 320 320 313 311 314 311 309 319 322 327 329 330 333 330 323